Weather in Supra

Russia / Khanty-Mansi Autonomous Okrug — Yugra     60°57′58″N   64°41′34″E
temp.,
°C
wind,
m/s
gust,
m/s
humid.,
%
clouds,
%
prec.,
mm/h
press.,
hPa
HPBL,
m
11 may, tue
tue1123:00+13sse3856100 0.0 1025149
02:00+12ssw396045 0.0 1025176
05:00+11ssw3865100 0.0 1025163
08:00+15ssw4950100 0.0 1023314
11:00+19wsw5637100 0.0 10231137
14:00+20w31047100 0.0 10232120
17:00+14nnw377663 0.3 1025664
20:00+13nnw485794 0.0 1025524
12 may, wed
wed1223:00+8n278210 0.0 1027234
02:00+7nw1183100 0.0 102712
05:00+9wsw1275100 0.0 102795
08:00+11w2662100 0.0 1027361
11:00+13wnw4657100 0.0 1026850
14:00+13w376532 0.0 1025760
17:00+18wnw485482 0.0 1023862
20:00+15sw256788 0.0 102297
13 may, thu
thu1323:00+14w31073100 0.0 1022194
02:00+13wnw4127666 0.0 1021279
05:00+13wnw4127918 0.0 1022341
08:00+16nnw596590 0.0 10231073
11:00+19n5749100 0.0 10241629
14:00+20nnw453913 0.0 10241797
17:00+21nnw35365 0.0 10251747
20:00+18ene22490 0.0 102414
14 may, fri
fri1423:00+12se36560 0.0 1025107
02:00+11s39595 0.0 1024153
05:00+12sw3117612 0.0 1023213
08:00+19wsw51158100 0.0 1021473
11:00+25w6103840 0.0 10192341
14:00+26wnw6102999 0.0 10173527
17:00+26wnw5113259 0.0 10172874
20:00+21wnw39475 0.0 1017281
15 may, sat
sat1523:00+16w357455 0.3 101774
02:00+14wnw1187100 0.4 101711
05:00+14w259498 1.1 1017144
08:00+18wsw357099 0.1 1016423
11:00+23wsw484929 0.1 10141494
14:00+26w610307 0.0 10132958
17:00+26w693016 0.0 10123074
20:00+22nnw374810 0.0 1013212